When you browse on this site, cookies collect data to enhance your experience and personalize the content and advertising you see.
Visit our Privacy Policy to learn more. By continuing to use the site, you agree to this use of cookies and data.
  • In Hungary
  • List of Countries
  • For 7 days
  • Water Temperature
  • Satellite Maps
  • Weather Map
  • News
  • Weather Widgets
  • user-avatar
    Login

    Hourly Weather Katerini

    Today, 19 November, Monday

    Time Temperature Precipitation Wind Pressure Humidity
    00:00 +9°C° 0.3 mm 2 mps 753 mmHg 91%
    01:00 +9°C° 0.3 mm 2 mps 753 mmHg 91%
    02:00 +9°C° 0 mm 2 mps 753 mmHg 88%
    03:00 +9°C° 0 mm 2 mps 753 mmHg 89%
    04:00 +9°C° 0 mm 2 mps 753 mmHg 89%
    05:00 +9°C° 0 mm 2 mps 753 mmHg 90%
    06:00 +9°C° 0 mm 2 mps 754 mmHg 89%
    07:00 +9°C° 0 mm 2 mps 754 mmHg 88%
    08:00 +9°C° 0 mm 2 mps 754 mmHg 86%
    09:00 +10°C° 0 mm 2 mps 755 mmHg 81%
    10:00 +13°C° 0 mm 2 mps 755 mmHg 76%
    11:00 +14°C° 0 mm 2 mps 755 mmHg 71%
    12:00 +15°C° 0 mm 2 mps 755 mmHg 68%
    13:00 +16°C° 0 mm 2 mps 755 mmHg 65%
    14:00 +18°C° 0 mm 1 mps 755 mmHg 62%
    15:00 +16°C° 0 mm 1 mps 755 mmHg 66%
    16:00 +15°C° 0 mm 1 mps 756 mmHg 69%
    17:00 +14°C° 0 mm 1 mps 756 mmHg 72%
    18:00 +14°C° 0 mm 1 mps 756 mmHg 74%
    19:00 +14°C° 0 mm 1 mps 757 mmHg 76%
    20:00 +13°C° 0 mm 1 mps 757 mmHg 77%
    21:00 +13°C° 0 mm 1 mps 758 mmHg 78%
    22:00 +13°C° 0 mm 1 mps 758 mmHg 79%
    23:00 +13°C° 0 mm 1 mps 759 mmHg 81%

    Tomorrow, 20 November, Tuesday

    Time Temperature Precipitation Wind Pressure Humidity
    00:00 +13°C° 0.1 mm 1 mps 759 mmHg 82%
    01:00 +14°C° 0.1 mm 2 mps 759 mmHg 83%
    02:00 +14°C° 0.1 mm 2 mps 759 mmHg 85%
    03:00 +14°C° 0.2 mm 2 mps 759 mmHg 86%
    04:00 +14°C° 0.2 mm 2 mps 759 mmHg 88%
    05:00 +14°C° 0.2 mm 2 mps 759 mmHg 89%
    06:00 +14°C° 0.3 mm 2 mps 759 mmHg 90%
    07:00 +14°C° 0.3 mm 2 mps 759 mmHg 91%
    08:00 +14°C° 0.3 mm 2 mps 759 mmHg 92%
    09:00 +14°C° 0.3 mm 3 mps 759 mmHg 91%
    10:00 +16°C° 0.3 mm 3 mps 759 mmHg 89%
    11:00 +16°C° 0.3 mm 3 mps 759 mmHg 88%
    12:00 +17°C° 0.2 mm 3 mps 759 mmHg 87%
    13:00 +17°C° 0.2 mm 3 mps 758 mmHg 85%
    14:00 +18°C° 0.2 mm 3 mps 758 mmHg 83%
    15:00 +17°C° 0.2 mm 3 mps 757 mmHg 85%
    16:00 +17°C° 0.2 mm 3 mps 757 mmHg 87%
    17:00 +17°C° 0.2 mm 3 mps 757 mmHg 89%
    18:00 +17°C° 0.3 mm 3 mps 757 mmHg 90%
    19:00 +16°C° 0.3 mm 2 mps 757 mmHg 91%
    20:00 +16°C° 0.3 mm 2 mps 757 mmHg 92%
    21:00 +16°C° 0.7 mm 2 mps 757 mmHg 92%
    22:00 +16°C° 0.7 mm 2 mps 757 mmHg 93%
    23:00 +16°C° 0.7 mm 1 mps 757 mmHg 93%

    Day after tomorrow, 21 November, Wednesday

    Time Temperature Precipitation Wind Pressure Humidity
    00:00 +16°C° 0.5 mm 2 mps 756 mmHg 93%
    01:00 +16°C° 0.5 mm 2 mps 756 mmHg 93%
    02:00 +16°C° 0.5 mm 2 mps 756 mmHg 93%
    03:00 +16°C° 0.7 mm 2 mps 755 mmHg 94%
    04:00 +16°C° 0.7 mm 2 mps 755 mmHg 94%
    05:00 +16°C° 0.7 mm 2 mps 754 mmHg 95%
    06:00 +16°C° 1.4 mm 2 mps 754 mmHg 94%
    07:00 +16°C° 1.4 mm 2 mps 754 mmHg 94%
    08:00 +15°C° 1.4 mm 2 mps 754 mmHg 93%
    09:00 +16°C° 0.2 mm 2 mps 754 mmHg 88%
    10:00 +17°C° 0.2 mm 2 mps 754 mmHg 84%
    11:00 +18°C° 0.2 mm 2 mps 754 mmHg 79%
    12:00 +19°C° 0.3 mm 2 mps 754 mmHg 74%
    13:00 +19°C° 0.3 mm 2 mps 754 mmHg 69%
    14:00 +20°C° 0.3 mm 2 mps 753 mmHg 65%
    15:00 +19°C° 0.4 mm 2 mps 754 mmHg 67%
    16:00 +18°C° 0.4 mm 2 mps 754 mmHg 70%
    17:00 +18°C° 0.4 mm 2 mps 754 mmHg 72%
    18:00 +17°C° 0.3 mm 2 mps 755 mmHg 74%
    19:00 +17°C° 0.3 mm 2 mps 755 mmHg 76%
    20:00 +16°C° 0.3 mm 3 mps 756 mmHg 78%
    21:00 +16°C° 0.1 mm 3 mps 756 mmHg 79%
    22:00 +14°C° 0.1 mm 3 mps 757 mmHg 80%
    23:00 +14°C° 0.1 mm 3 mps 757 mmHg 81%

    22 November, Thursday

    Time Temperature Precipitation Wind Pressure Humidity
    00:00 +14°C° 0.1 mm 3 mps 757 mmHg 82%
    01:00 +15°C° 0.1 mm 2 mps 758 mmHg 83%
    02:00 +14°C° 0.1 mm 2 mps 758 mmHg 83%
    03:00 +14°C° 0 mm 2 mps 758 mmHg 84%
    04:00 +14°C° 0 mm 2 mps 758 mmHg 84%
    05:00 +14°C° 0 mm 2 mps 758 mmHg 85%
    06:00 +13°C° 0 mm 2 mps 759 mmHg 85%
    07:00 +13°C° 0 mm 2 mps 759 mmHg 85%
    08:00 +13°C° 0 mm 2 mps 760 mmHg 85%
    09:00 +14°C° 0 mm 1 mps 760 mmHg 81%
    10:00 +15°C° 0 mm 1 mps 760 mmHg 76%
    11:00 +16°C° 0 mm 1 mps 760 mmHg 72%
    12:00 +16°C° 0 mm 1 mps 760 mmHg 70%
    13:00 +18°C° 0 mm 1 mps 760 mmHg 69%
    14:00 +18°C° 0 mm 1 mps 760 mmHg 67%
    15:00 +16°C° 0.1 mm 2 mps 760 mmHg 70%
    16:00 +16°C° 0.1 mm 2 mps 760 mmHg 74%
    17:00 +15°C° 0.1 mm 2 mps 761 mmHg 77%
    18:00 +15°C° 0.1 mm 2 mps 761 mmHg 80%
    19:00 +14°C° 0.1 mm 2 mps 762 mmHg 83%
    20:00 +14°C° 0.1 mm 2 mps 762 mmHg 86%
    21:00 +14°C° 0.2 mm 2 mps 762 mmHg 87%
    22:00 +14°C° 0.2 mm 2 mps 763 mmHg 88%
    23:00 +13°C° 0.2 mm 2 mps 763 mmHg 89%

    23 November, Friday

    Time Temperature Precipitation Wind Pressure Humidity
    00:00 +13°C° 0.4 mm 2 mps 763 mmHg 89%
    01:00 +13°C° 0.4 mm 2 mps 763 mmHg 89%
    02:00 +13°C° 0.4 mm 2 mps 763 mmHg 89%
    03:00 +13°C° 0.4 mm 2 mps 763 mmHg 89%
    04:00 +13°C° 0.4 mm 2 mps 764 mmHg 89%
    05:00 +13°C° 0.4 mm 2 mps 764 mmHg 89%
    06:00 +13°C° 0.3 mm 2 mps 764 mmHg 89%
    07:00 +13°C° 0.3 mm 2 mps 765 mmHg 89%
    08:00 +12°C° 0.3 mm 2 mps 765 mmHg 89%
    09:00 +13°C° 0.3 mm 2 mps 765 mmHg 87%
    10:00 +13°C° 0.3 mm 2 mps 766 mmHg 85%
    11:00 +13°C° 0.3 mm 2 mps 766 mmHg 82%
    12:00 +14°C° 0.1 mm 2 mps 766 mmHg 81%
    13:00 +14°C° 0.1 mm 2 mps 765 mmHg 80%
    14:00 +14°C° 0.1 mm 2 mps 765 mmHg 78%
    15:00 +14°C° 0.1 mm 2 mps 765 mmHg 80%
    16:00 +13°C° 0.1 mm 2 mps 766 mmHg 81%
    17:00 +13°C° 0.1 mm 2 mps 766 mmHg 82%
    18:00 +13°C° 0 mm 1 mps 766 mmHg 83%
    19:00 +12°C° 0 mm 1 mps 766 mmHg 84%
    20:00 +12°C° 0 mm 1 mps 767 mmHg 85%
    21:00 +12°C° 0 mm 1 mps 767 mmHg 85%
    22:00 +12°C° 0 mm 1 mps 767 mmHg 85%
    23:00 +12°C° 0 mm 1 mps 767 mmHg 85%

    24 November, Saturday

    Time Temperature Precipitation Wind Pressure Humidity
    00:00 +11°C° 0 mm 1 mps 767 mmHg 85%
    01:00 +11°C° 0 mm 1 mps 767 mmHg 85%
    02:00 +11°C° 0 mm 1 mps 767 mmHg 85%
    03:00 +11°C° 0 mm 1 mps 767 mmHg 86%
    04:00 +11°C° 0 mm 1 mps 767 mmHg 87%
    05:00 +11°C° 0 mm 1 mps 767 mmHg 87%
    06:00 +11°C° 0 mm 1 mps 767 mmHg 87%
    07:00 +10°C° 0 mm 1 mps 767 mmHg 88%
    08:00 +10°C° 0 mm 1 mps 767 mmHg 88%
    09:00 +11°C° 0 mm 1 mps 767 mmHg 83%
    10:00 +12°C° 0 mm 1 mps 767 mmHg 79%
    11:00 +13°C° 0 mm 1 mps 767 mmHg 75%
    12:00 +13°C° 0 mm 1 mps 766 mmHg 73%
    13:00 +14°C° 0 mm 1 mps 766 mmHg 70%
    14:00 +14°C° 0 mm 1 mps 765 mmHg 68%
    15:00 +14°C° 0 mm 1 mps 765 mmHg 71%
    16:00 +13°C° 0 mm 1 mps 765 mmHg 73%
    17:00 +13°C° 0 mm 1 mps 765 mmHg 76%
    18:00 +12°C° 0 mm 1 mps 765 mmHg 78%
    19:00 +12°C° 0 mm 1 mps 766 mmHg 80%
    20:00 +11°C° 0 mm 1 mps 766 mmHg 83%
    21:00 +11°C° 0 mm 1 mps 766 mmHg 83%
    22:00 +11°C° 0 mm 1 mps 766 mmHg 84%
    23:00 +10°C° 0 mm 0 mps 766 mmHg 85%
    Show more